Weather History for KBPC - June, 2013

Change the Weather History Date:

Monday, June 10, 2013

  Actual Average Record
Temperature  
Mean Temperature 85 °F -  
Max Temperature 102 °F - - ()
Min Temperature 68 °F - - ()
Cooling Degree Days 20    
Growing Degree Days 35 (Base 50)    
Moisture  
Dew Point 53 °F    
Average Humidity 38    
Maximum Humidity 73    
Minimum Humidity 14    
Precipitation  
Precipitation 0.00 in - - ()
Sea Level Pressure  
Sea Level Pressure 29.91 in    
Wind  
Wind Speed 18 mph (SSW)    
Max Wind Speed 26 mph    
Max Gust Speed 33 mph    
Visibility 10 miles    
Events      
Averages and records for this station are not official NWS values.
T = Trace of Precipitation, MM = Missing Value Source: NWS Daily Summary

Daily Weather History Graph

Daily Weather History Graph

Search for Another Location

Airport or City:

Astronomy

Jun. 10, 2013 Rise Set
Actual Time 6:27 AM CDT 9:00 PM CDT
Civil Twilight 5:57 AM CDT 9:30 PM CDT
Nautical Twilight 5:19 AM CDT 10:07 PM CDT
Astronomical Twilight 4:38 AM CDT 10:48 PM CDT
Moon 8:14 AM CDT (6/10) 10:31 PM CDT (6/10)
Length of Visible Light 15h 33m
Length of Day
14h 33m
Waxing Crescent, 4% of the Moon is Illuminated
Jun 10
Waxing Crescent
Jun 16
First Quarter
Jun 23
Full
Jun 29
Last Quarter
Jul 8
New

Hourly Weather History & Observations

Time (CDT) Temp. Heat Index Dew Point Humidity Pressure Visibility Wind Dir Wind Speed Gust Speed Precip Events Conditions
12:15 AM 77.0 °F - 51.8 °F 41% 29.94 in 10.0 mi South 17.3 mph 26.5 mph N/A   Clear
12:35 AM 77.0 °F - 53.6 °F 44% 29.94 in 10.0 mi South 21.9 mph 26.5 mph N/A   Clear
12:55 AM 77.0 °F - 55.4 °F 47% 29.94 in 10.0 mi South 20.7 mph 25.3 mph N/A   Clear
1:15 AM 75.2 °F - 55.4 °F 50% 29.94 in 10.0 mi South 19.6 mph 25.3 mph N/A   Clear
1:35 AM 75.2 °F - 55.4 °F 50% 29.94 in 10.0 mi SSW 20.7 mph 25.3 mph N/A   Clear
1:55 AM 73.4 °F - 57.2 °F 57% 29.94 in 10.0 mi SSW 16.1 mph 23.0 mph N/A   Clear
2:15 AM 73.4 °F - 57.2 °F 57% 29.94 in 10.0 mi SW 13.8 mph - N/A   Clear
2:35 AM 71.6 °F - 57.2 °F 60% 29.94 in 10.0 mi SW 10.4 mph - N/A   Clear
2:55 AM 71.6 °F - 57.2 °F 60% 29.94 in 10.0 mi SW 9.2 mph - N/A   Clear
3:15 AM 71.6 °F - 59.0 °F 64% 29.94 in 10.0 mi SW 11.5 mph - N/A   Clear
3:35 AM 71.6 °F - 59.0 °F 64% 29.94 in 10.0 mi SW 10.4 mph - N/A   Clear
3:55 AM 69.8 °F - 59.0 °F 68% 29.94 in 10.0 mi SW 10.4 mph - N/A   Clear
4:15 AM 69.8 °F - 59.0 °F 68% 29.94 in 10.0 mi SW 11.5 mph - N/A   Clear
4:35 AM 69.8 °F - 59.0 °F 68% 29.94 in 10.0 mi SW 10.4 mph - N/A   Clear
4:55 AM 69.8 °F - 59.0 °F 68% 29.94 in 10.0 mi SW 10.4 mph - N/A   Clear
5:15 AM 68.0 °F - 59.0 °F 73% 29.95 in 10.0 mi WSW 10.4 mph - N/A   Clear
5:35 AM 69.8 °F - 59.0 °F 68% 29.95 in 10.0 mi WSW 10.4 mph - N/A   Clear
5:55 AM 69.8 °F - 59.0 °F 68% 29.95 in 10.0 mi WSW 10.4 mph - N/A   Clear
6:15 AM 69.8 °F - 59.0 °F 68% 29.95 in 10.0 mi WSW 12.7 mph - N/A   Clear
6:35 AM 69.8 °F - 59.0 °F 68% 29.96 in 10.0 mi SW 15.0 mph - N/A   Clear
6:55 AM 68.0 °F - 59.0 °F 73% 29.96 in 10.0 mi SW 13.8 mph - N/A   Clear
7:15 AM 69.8 °F - 59.0 °F 68% 29.96 in 10.0 mi SW 15.0 mph - N/A   Clear
7:35 AM 69.8 °F - 59.0 °F 68% 29.96 in 10.0 mi SW 13.8 mph - N/A   Clear
7:55 AM 71.6 °F - 59.0 °F 64% 29.96 in 10.0 mi SW 16.1 mph 20.7 mph N/A   Clear
8:15 AM 73.4 °F - 59.0 °F 61% 29.96 in 10.0 mi SW 16.1 mph 20.7 mph N/A   Clear
8:35 AM 75.2 °F - 59.0 °F 57% 29.96 in 10.0 mi SW 13.8 mph - N/A   Clear
8:55 AM 77.0 °F - 59.0 °F 54% 29.96 in 10.0 mi SW 18.4 mph - N/A   Clear
9:15 AM 78.8 °F - 59.0 °F 51% 29.96 in 10.0 mi SW 21.9 mph 26.5 mph N/A   Clear
9:35 AM 80.6 °F 81.1 °F 59.0 °F 48% 29.96 in 10.0 mi SW 19.6 mph 29.9 mph N/A   Clear
9:55 AM 82.4 °F 82.5 °F 59.0 °F 45% 29.96 in 10.0 mi SW 19.6 mph 25.3 mph N/A   Clear
10:15 AM 84.2 °F 83.8 °F 59.0 °F 42% 29.95 in 10.0 mi SW 19.6 mph 28.8 mph N/A   Clear
10:35 AM 86.0 °F 85.4 °F 59.0 °F 40% 29.95 in 10.0 mi WSW 19.6 mph 27.6 mph N/A   Clear
10:55 AM 87.8 °F 86.5 °F 57.2 °F 35% 29.95 in 10.0 mi WSW 24.2 mph 31.1 mph N/A   Clear
11:15 AM 89.6 °F 88.1 °F 57.2 °F 33% 29.95 in 10.0 mi WSW 26.5 mph 31.1 mph N/A   Clear
11:35 AM 89.6 °F 87.7 °F 55.4 °F 31% 29.95 in 10.0 mi WSW 23.0 mph 31.1 mph N/A   Clear
11:55 AM 91.4 °F 89.4 °F 55.4 °F 29% 29.94 in 10.0 mi SW 23.0 mph 28.8 mph N/A   Clear
12:15 PM 93.2 °F 91.3 °F 55.4 °F 28% 29.94 in 10.0 mi SW 21.9 mph 28.8 mph N/A   Clear
12:35 PM 93.2 °F 91.3 °F 55.4 °F 28% 29.94 in 10.0 mi SW 23.0 mph 29.9 mph N/A   Clear
12:55 PM 95.0 °F 93.0 °F 55.4 °F 26% 29.94 in 10.0 mi SW 17.3 mph 27.6 mph N/A   Clear
1:15 PM 95.0 °F 93.0 °F 55.4 °F 26% 29.93 in 10.0 mi SW 23.0 mph 28.8 mph N/A   Clear
1:35 PM 96.8 °F 94.4 °F 53.6 °F 23% 29.92 in 10.0 mi SW 23.0 mph 31.1 mph N/A   Clear
1:55 PM 98.6 °F - 51.8 °F 21% 29.91 in 10.0 mi SW 21.9 mph 28.8 mph N/A   Clear
2:15 PM 100.4 °F - 50.0 °F 18% 29.90 in 10.0 mi SW 20.7 mph 27.6 mph N/A   Clear
2:35 PM 100.4 °F - 48.2 °F 17% 29.90 in 10.0 mi SW 23.0 mph 28.8 mph N/A   Clear
2:55 PM 100.4 °F - 44.6 °F 15% 29.89 in 10.0 mi SSW 24.2 mph 29.9 mph N/A   Clear
3:15 PM 102.2 °F - 46.4 °F 15% 29.89 in 10.0 mi SW 24.2 mph 31.1 mph N/A   Clear
3:35 PM 102.2 °F - 46.4 °F 15% 29.88 in 10.0 mi SSW 21.9 mph 31.1 mph N/A   Clear
3:55 PM 100.4 °F - 46.4 °F 16% 29.87 in 10.0 mi SW 19.6 mph 33.4 mph N/A   Clear
4:15 PM 102.2 °F - 46.4 °F 15% 29.87 in 10.0 mi SW 23.0 mph 28.8 mph N/A   Clear
4:35 PM 102.2 °F - 44.6 °F 14% 29.86 in 10.0 mi SSW 17.3 mph 29.9 mph N/A   Clear
4:55 PM 102.2 °F - 46.4 °F 15% 29.86 in 10.0 mi SSW 23.0 mph 27.6 mph N/A   Clear
5:15 PM 102.2 °F - 44.6 °F 14% 29.85 in 10.0 mi SW 23.0 mph 32.2 mph N/A   Clear
5:35 PM 102.2 °F - 46.4 °F 15% 29.85 in 10.0 mi SSW 20.7 mph 29.9 mph N/A   Clear
5:55 PM 102.2 °F - 44.6 °F 14% 29.84 in 10.0 mi South 20.7 mph 27.6 mph N/A   Clear
6:15 PM 100.4 °F - 44.6 °F 15% 29.84 in 10.0 mi SSW 23.0 mph 29.9 mph N/A   Clear
6:35 PM 100.4 °F - 44.6 °F 15% 29.84 in 10.0 mi SSW 26.5 mph 33.4 mph N/A   Clear
6:55 PM 98.6 °F - 42.8 °F 15% 29.84 in 10.0 mi South 20.7 mph 28.8 mph N/A   Clear
7:15 PM 96.8 °F - 42.8 °F 16% 29.85 in 10.0 mi South 16.1 mph 24.2 mph N/A   Clear
7:35 PM 96.8 °F - 42.8 °F 16% 29.85 in 10.0 mi South 18.4 mph 25.3 mph N/A   Clear
7:55 PM 95.0 °F - 42.8 °F 16% 29.86 in 10.0 mi South 13.8 mph 24.2 mph N/A   Clear
8:15 PM 95.0 °F - 44.6 °F 18% 29.86 in 10.0 mi South 16.1 mph - N/A   Clear
8:35 PM 93.2 °F - 44.6 °F 19% 29.86 in 10.0 mi South 16.1 mph 21.9 mph N/A   Clear
8:55 PM 91.4 °F - 46.4 °F 21% 29.86 in 10.0 mi South 17.3 mph - N/A   Clear
9:15 PM 89.6 °F - 46.4 °F 22% 29.85 in 10.0 mi South 18.4 mph 25.3 mph N/A   Clear
9:35 PM 89.6 °F - 46.4 °F 22% 29.86 in 10.0 mi South 19.6 mph 26.5 mph N/A   Clear
9:55 PM 89.6 °F - 46.4 °F 22% 29.87 in 10.0 mi South 18.4 mph 26.5 mph N/A   Clear
10:15 PM 87.8 °F - 48.2 °F 25% 29.88 in 10.0 mi South 20.7 mph 27.6 mph N/A   Clear
10:35 PM 87.8 °F - 50.0 °F 27% 29.89 in 10.0 mi South 19.6 mph - N/A   Clear
10:55 PM 86.0 °F - 50.0 °F 29% 29.89 in 10.0 mi South 24.2 mph 31.1 mph N/A   Clear
11:15 PM 86.0 °F - 50.0 °F 29% 29.90 in 10.0 mi South 20.7 mph 32.2 mph N/A   Clear
11:35 PM 86.0 °F - 50.0 °F 29% 29.91 in 10.0 mi South 25.3 mph 32.2 mph N/A   Clear
11:55 PM 84.2 °F - 50.0 °F 30% 29.91 in 10.0 mi South 24.2 mph 32.2 mph N/A   Clear